Location: Bonny Doon Airfield
(37.0704°N, 122.1252°W)
Time: 01:22:41
(UTC-08:00)

Tiangong 2 - Pass Details

Date: 13 October 2017
Orbit: 386 x 390 km, 42.8° (Epoch: 12 December)

Event Time Altitude Azimuth Distance (km) Brightness Sun altitude
Exits shadow 06:01:23 23° 322° (NW) 875 2.5 -15.4°
Maximum altitude 06:02:24 28° 355° (N) 761 2.5 -15.2°
Drops below altitude 10° 06:05:15 10° 58° (ENE) 1,422 4.9 -14.6°
Sets 06:07:30 0° 70° (ENE) 2,279 6.4 -14.2°
